#timestamp,LO_Frequency,Hit,StdDev 
1710619215.3,286047003.7,N
1710619235.1,286047008.8,N
1710619255.9,286047002.9,N
1710619275.7,286046999.8,N
1710619295.5,286047003.0,N
1710619315.4,286047006.3,N
1710619335.2,286047010.4,N
1710619355.1,286047008.7,N
1710619356.0,286047008.7,N
1710619375.8,286047004.9,N
1710619395.6,286047006.0,N
1710619415.5,286047008.1,N
1710619435.3,286047011.7,Y
1710619455.1,286047006.7,P
1710619475.9,286047006.7,P
1710619495.7,286047006.0,P
1710619515.6,286047007.6,Y
1710619535.4,286047004.3,P
1710619555.2,286047002.1,N
1710619575.1,286046998.5,N
1710619576.0,286046998.5,N
1710619595.8,286046999.3,N
1710619615.6,286047005.6,N
1710619635.5,286047005.9,N
1710619655.3,286047003.1,N
1710619675.2,286047007.0,N
1710619695.9,286047006.6,N
1710619715.7,286047007.7,N
1710619735.6,286047007.9,N
1710619755.4,286047007.0,N
1710619775.3,286047006.0,N
1710619795.1,286047008.8,N
1710619796.0,286047008.8,N
1710619815.8,286047010.1,Y
1710619835.7,286047005.2,P
1710619855.5,286047002.0,P
1710619875.3,286047004.2,N
1710619895.2,286047005.1,Y
1710619915.0,286046996.7,P
1710619915.9,286046996.7,N
1710619935.8,286046998.4,N
1710619955.6,286047004.3,N
1710619975.4,286047001.8,N
1710619995.3,286047004.3,N
1710620015.1,286047006.3,N
1710620035.9,286047004.7,N
1710620055.7,286047004.7,N
1710620075.5,286047007.7,N
1710620095.4,286047010.1,N
1710620115.2,286047010.6,N
1710620135.0,286047011.9,N
1710620135.9,286047011.9,N
1710620155.8,286047012.3,N
1710620175.6,286047012.1,N
1710620195.5,286047011.3,N
1710620215.3,286047012.6,N
1710620235.1,286047015.0,N
1710620255.9,286047016.4,Y
1710620275.7,286047009.4,P
1710620295.6,286047009.4,P
1710620315.4,286047010.2,P
1710620335.2,286047008.2,Y
1710620355.1,286047000.4,P
1710620356.0,286047000.4,N
1710620375.8,286047002.7,N
1710620395.6,286047001.6,N
1710620415.5,286047000.2,N
1710620435.3,286046996.9,N
1710620455.2,286047000.5,N
1710620475.9,286047001.1,N
1710620495.7,286046998.2,N
1710620515.6,286047000.1,N
1710620535.4,286046996.5,N
1710620555.3,286047000.1,N
1710620575.1,286047002.2,N
1710620576.0,286047002.2,N
1710620595.8,286047001.0,N
1710620615.7,286046999.4,N
1710620635.5,286046997.8,N
1710620655.4,286047001.1,N
1710620675.2,286047001.7,N
1710620695.0,286047003.2,N
1710620695.9,286047003.2,N
1710620715.8,286047003.7,N
1710620735.6,286047006.8,N
1710620755.5,286047008.1,N
1710620775.3,286047012.2,Y
1710620795.1,286047010.4,P
1710620815.9,286047009.9,N
1710620835.7,286047011.3,N
1710620855.6,286047012.6,Y
1710620875.4,286047006.9,P
1710620895.2,286047004.3,P
1710620915.1,286047003.6,N
1710620916.0,286047003.6,N
1710620935.8,286047008.9,Y
1710620955.7,286047000.4,P
1710620975.5,286047001.1,N
1710620995.4,286047001.4,N
1710621015.2,286047004.0,N
1710621035.0,286046998.9,N
1710621035.9,286046998.9,N
1710621055.8,286046999.6,N
1710621075.6,286046996.1,N
1710621095.5,286046999.5,N
1710621115.3,286046993.3,N
1710621135.1,286046993.9,N
1710621155.9,286046997.7,N
1710621175.7,286046995.0,N
1710621195.5,286046995.3,N
1710621215.4,286046997.8,N
1710621235.2,286046998.8,N
1710621255.1,286046997.2,N
1710621256.0,286046997.2,N
1710621275.8,286046999.0,N
1710621295.6,286047000.0,N
1710621315.5,286046999.8,N
1710621335.3,286047000.8,N
1710621355.2,286046997.2,N
1710621375.9,286046996.6,N
1710621395.7,286046999.5,N
1710621415.6,286046998.9,N
1710621435.4,286046997.8,N
1710621455.2,286046999.5,N
1710621475.1,286046997.7,N
1710621476.0,286047011.9,Y
1710621495.8,286046998.2,P
1710621515.7,286046999.7,N
1710621535.5,286047000.6,N
1710621555.3,286047007.0,Y
1710621575.2,286047011.3,P
1710621595.0,286047011.0,N
1710621595.9,286047011.0,N
1710621615.8,286047011.8,N
1710621635.6,286047010.1,N
1710621655.4,286047009.1,N
1710621675.3,286047006.3,N
1710621695.1,286047003.0,N
1710621715.9,286047005.8,N
1710621735.7,286047005.5,N
1710621755.5,286047009.0,N
1710621775.4,286047009.7,N
1710621795.2,286047006.4,N
1710621815.0,286047009.0,N
1710621815.9,286047009.0,N
1710621835.8,286047005.4,N
1710621855.6,286047008.4,N
1710621875.4,286047004.5,N
1710621895.3,286047010.5,Y
1710621915.1,286047000.0,P
1710621935.9,286047001.5,N
1710621955.7,286047007.1,N
1710621975.5,286047008.5,N
1710621995.4,286047010.7,Y
1710622015.2,286047001.2,P
1710622035.1,286047001.8,N
1710622036.0,286047001.8,N
1710622055.8,286047011.2,Y
1710622075.6,286047005.3,P
1710622095.5,286047005.9,P
1710622115.3,286047000.4,N
1710622135.1,286046997.5,N
1710622155.9,286046994.5,N
1710622175.7,286046991.2,N
1710622195.6,286046992.1,N
1710622215.4,286046996.0,N
1710622235.2,286046994.6,N
1710622255.1,286046999.2,N
1710622256.0,286046999.2,N
1710622275.8,286046997.4,N
1710622295.6,286046999.0,N
1710622315.5,286046998.2,N
1710622335.3,286046998.1,N
1710622355.2,286046998.2,N
1710622375.9,286046999.8,N
1710622395.7,286047003.9,N
1710622415.6,286047003.9,N
1710622435.4,286047006.4,N
1710622455.2,286047006.3,N
1710622475.1,286047009.4,N
1710622476.0,286047009.4,N
1710622495.8,286047010.6,N
1710622515.7,286047007.3,N
1710622535.5,286047005.3,N
1710622555.3,286047006.3,N
1710622575.2,286047010.0,N
1710622595.0,286047016.9,Y
1710622595.9,286047016.9,P
1710622615.8,286047014.0,N
1710622635.6,286047009.2,N
1710622655.4,286047007.4,N
1710622675.3,286047006.7,N
1710622695.1,286047007.1,N
1710622715.9,286047007.2,N
1710622735.7,286047004.4,N
1710622755.5,286047001.4,N
1710622775.4,286047003.4,N
1710622795.2,286047001.9,N
